When you browse on this site, cookies collect data to enhance your experience and personalize the content and advertising you see.
Visit our Privacy Policy to learn more. By continuing to use the site, you agree to this use of cookies and data.
  • In Slovakia
  • List of Countries
  • For 7 days
  • Water Temperature
  • Satellite Maps
  • Weather Map
  • Weather Widgets
  • user-avatar
    Login

    Hourly Weather Mauritius

    Today, 10 December, Monday

    Time Temperature Precipitation Wind Pressure Humidity
    00:00 +26°C° 0 mm 4 mps 724 mmHg 81%
    01:00 +26°C° 0 mm 4 mps 724 mmHg 81%
    02:00 +25°C° 0 mm 4 mps 724 mmHg 82%
    03:00 +25°C° 0 mm 4 mps 724 mmHg 83%
    04:00 +25°C° 0 mm 4 mps 723 mmHg 83%
    05:00 +25°C° 0.2 mm 4 mps 724 mmHg 83%
    06:00 +26°C° 0.2 mm 5 mps 724 mmHg 82%
    07:00 +26°C° 0.2 mm 5 mps 724 mmHg 81%
    08:00 +26°C° 0.7 mm 5 mps 724 mmHg 79%
    09:00 +27°C° 0.7 mm 5 mps 724 mmHg 77%
    10:00 +27°C° 0.7 mm 6 mps 725 mmHg 75%
    11:00 +28°C° 0.2 mm 6 mps 725 mmHg 72%
    12:00 +28°C° 0.2 mm 6 mps 724 mmHg 70%
    13:00 +29°C° 0.2 mm 5 mps 724 mmHg 67%
    14:00 +29°C° 0 mm 6 mps 724 mmHg 68%
    15:00 +28°C° 0 mm 6 mps 724 mmHg 69%
    16:00 +28°C° 0 mm 6 mps 723 mmHg 69%
    17:00 +28°C° 0.3 mm 6 mps 723 mmHg 72%
    18:00 +27°C° 0.3 mm 6 mps 723 mmHg 74%
    19:00 +27°C° 0.3 mm 6 mps 724 mmHg 76%
    20:00 +26°C° 0.2 mm 6 mps 724 mmHg 77%
    21:00 +26°C° 0.2 mm 6 mps 724 mmHg 78%
    22:00 +26°C° 0.2 mm 6 mps 725 mmHg 79%
    23:00 +26°C° 0.2 mm 6 mps 724 mmHg 79%

    Tomorrow, 11 December, Tuesday

    Time Temperature Precipitation Wind Pressure Humidity
    00:00 +26°C° 0.2 mm 5 mps 724 mmHg 79%
    01:00 +26°C° 0.2 mm 5 mps 724 mmHg 80%
    02:00 +26°C° 0.3 mm 5 mps 723 mmHg 80%
    03:00 +25°C° 0.3 mm 5 mps 723 mmHg 81%
    04:00 +25°C° 0.3 mm 5 mps 723 mmHg 82%
    05:00 +25°C° 0.1 mm 5 mps 723 mmHg 81%
    06:00 +26°C° 0.1 mm 5 mps 724 mmHg 80%
    07:00 +26°C° 0.1 mm 5 mps 724 mmHg 79%
    08:00 +26°C° 0 mm 5 mps 724 mmHg 77%
    09:00 +27°C° 0 mm 5 mps 724 mmHg 74%
    10:00 +28°C° 0 mm 5 mps 724 mmHg 72%
    11:00 +28°C° 0.1 mm 5 mps 724 mmHg 71%
    12:00 +28°C° 0.1 mm 5 mps 724 mmHg 70%
    13:00 +28°C° 0.1 mm 5 mps 724 mmHg 69%
    14:00 +28°C° 0.4 mm 5 mps 723 mmHg 69%
    15:00 +28°C° 0.4 mm 5 mps 723 mmHg 70%
    16:00 +28°C° 0.4 mm 5 mps 722 mmHg 70%
    17:00 +27°C° 0.1 mm 5 mps 723 mmHg 72%
    18:00 +27°C° 0.1 mm 5 mps 723 mmHg 75%
    19:00 +27°C° 0.1 mm 5 mps 723 mmHg 77%
    20:00 +26°C° 0.1 mm 5 mps 724 mmHg 78%
    21:00 +26°C° 0.1 mm 5 mps 724 mmHg 80%
    22:00 +26°C° 0.1 mm 5 mps 725 mmHg 81%
    23:00 +26°C° 0 mm 5 mps 724 mmHg 81%

    Day after tomorrow, 12 December, Wednesday

    Time Temperature Precipitation Wind Pressure Humidity
    00:00 +26°C° 0 mm 5 mps 724 mmHg 82%
    01:00 +26°C° 0 mm 4 mps 724 mmHg 82%
    02:00 +26°C° 0 mm 4 mps 724 mmHg 82%
    03:00 +26°C° 0 mm 4 mps 724 mmHg 82%
    04:00 +25°C° 0 mm 4 mps 724 mmHg 83%
    05:00 +26°C° 0 mm 5 mps 724 mmHg 82%
    06:00 +26°C° 0 mm 5 mps 724 mmHg 81%
    07:00 +26°C° 0 mm 5 mps 725 mmHg 79%
    08:00 +27°C° 0 mm 5 mps 725 mmHg 77%
    09:00 +27°C° 0 mm 5 mps 725 mmHg 74%
    10:00 +28°C° 0 mm 5 mps 725 mmHg 71%
    11:00 +28°C° 0 mm 5 mps 725 mmHg 70%
    12:00 +28°C° 0 mm 5 mps 725 mmHg 69%
    13:00 +29°C° 0 mm 5 mps 724 mmHg 68%
    14:00 +28°C° 0 mm 5 mps 724 mmHg 69%
    15:00 +28°C° 0 mm 6 mps 724 mmHg 69%
    16:00 +28°C° 0 mm 6 mps 724 mmHg 70%
    17:00 +27°C° 0 mm 6 mps 724 mmHg 72%
    18:00 +27°C° 0 mm 6 mps 724 mmHg 75%
    19:00 +26°C° 0 mm 6 mps 725 mmHg 77%
    20:00 +26°C° 0 mm 6 mps 725 mmHg 78%
    21:00 +26°C° 0 mm 6 mps 725 mmHg 79%
    22:00 +26°C° 0 mm 6 mps 726 mmHg 80%
    23:00 +26°C° 0 mm 6 mps 725 mmHg 80%

    13 December, Thursday

    Time Temperature Precipitation Wind Pressure Humidity
    00:00 +26°C° 0 mm 6 mps 725 mmHg 81%
    01:00 +24°C° 0 mm 6 mps 725 mmHg 81%
    02:00 +25°C° 0 mm 5 mps 724 mmHg 81%
    03:00 +25°C° 0 mm 5 mps 724 mmHg 82%
    04:00 +25°C° 0 mm 5 mps 724 mmHg 82%
    05:00 +25°C° 0 mm 5 mps 724 mmHg 81%
    06:00 +26°C° 0 mm 5 mps 724 mmHg 81%
    07:00 +26°C° 0 mm 5 mps 725 mmHg 80%
    08:00 +26°C° 0.1 mm 5 mps 725 mmHg 77%
    09:00 +27°C° 0.1 mm 5 mps 725 mmHg 75%
    10:00 +28°C° 0.1 mm 5 mps 725 mmHg 72%
    11:00 +28°C° 0.1 mm 5 mps 725 mmHg 71%
    12:00 +28°C° 0.1 mm 5 mps 725 mmHg 70%
    13:00 +28°C° 0.1 mm 5 mps 724 mmHg 69%
    14:00 +28°C° 0.2 mm 5 mps 724 mmHg 70%
    15:00 +28°C° 0.2 mm 5 mps 724 mmHg 71%
    16:00 +28°C° 0.2 mm 6 mps 724 mmHg 72%
    17:00 +27°C° 0.2 mm 6 mps 724 mmHg 74%
    18:00 +27°C° 0.2 mm 6 mps 724 mmHg 76%
    19:00 +26°C° 0.2 mm 6 mps 724 mmHg 78%
    20:00 +26°C° 0.1 mm 6 mps 725 mmHg 78%
    21:00 +26°C° 0.1 mm 6 mps 725 mmHg 79%
    22:00 +26°C° 0.1 mm 6 mps 725 mmHg 80%
    23:00 +26°C° 0.1 mm 6 mps 725 mmHg 81%

    14 December, Friday

    Time Temperature Precipitation Wind Pressure Humidity
    00:00 +24°C° 0.1 mm 6 mps 725 mmHg 82%
    01:00 +24°C° 0.1 mm 6 mps 724 mmHg 83%
    02:00 +24°C° 0.1 mm 6 mps 724 mmHg 81%
    03:00 +24°C° 0.1 mm 6 mps 724 mmHg 80%
    04:00 +24°C° 0.1 mm 6 mps 723 mmHg 79%
    05:00 +24°C° 0 mm 6 mps 724 mmHg 78%
    06:00 +24°C° 0 mm 6 mps 724 mmHg 76%
    07:00 +24°C° 0 mm 6 mps 725 mmHg 75%
    08:00 +26°C° 0 mm 6 mps 725 mmHg 73%
    09:00 +27°C° 0 mm 6 mps 725 mmHg 71%
    10:00 +27°C° 0 mm 6 mps 725 mmHg 69%
    11:00 +28°C° 0 mm 6 mps 725 mmHg 67%
    12:00 +28°C° 0 mm 5 mps 724 mmHg 65%
    13:00 +28°C° 0 mm 5 mps 724 mmHg 63%
    14:00 +28°C° 0 mm 5 mps 724 mmHg 64%
    15:00 +28°C° 0 mm 5 mps 723 mmHg 65%
    16:00 +28°C° 0 mm 5 mps 723 mmHg 66%
    17:00 +27°C° 0 mm 5 mps 723 mmHg 69%
    18:00 +27°C° 0 mm 5 mps 724 mmHg 72%
    19:00 +26°C° 0 mm 5 mps 724 mmHg 75%
    20:00 +26°C° 0 mm 5 mps 724 mmHg 76%
    21:00 +26°C° 0 mm 5 mps 725 mmHg 78%
    22:00 +26°C° 0 mm 5 mps 725 mmHg 79%
    23:00 +26°C° 0.3 mm 5 mps 725 mmHg 80%

    15 December, Saturday

    Time Temperature Precipitation Wind Pressure Humidity
    00:00 +25°C° 0.3 mm 5 mps 724 mmHg 80%
    01:00 +24°C° 0.3 mm 6 mps 724 mmHg 81%
    02:00 +24°C° 0.2 mm 6 mps 724 mmHg 81%
    03:00 +24°C° 0.2 mm 6 mps 723 mmHg 81%
    04:00 +24°C° 0.2 mm 6 mps 723 mmHg 82%
    05:00 +24°C° 0.1 mm 6 mps 724 mmHg 80%
    06:00 +24°C° 0.1 mm 6 mps 724 mmHg 79%
    07:00 +26°C° 0.1 mm 7 mps 724 mmHg 78%
    08:00 +26°C° 0 mm 6 mps 724 mmHg 75%
    09:00 +27°C° 0 mm 6 mps 724 mmHg 72%
    10:00 +27°C° 0 mm 6 mps 725 mmHg 69%
    11:00 +28°C° 0 mm 6 mps 724 mmHg 67%
    12:00 +28°C° 0 mm 5 mps 724 mmHg 65%
    13:00 +28°C° 0 mm 5 mps 724 mmHg 63%
    14:00 +28°C° 0 mm 5 mps 724 mmHg 63%
    15:00 +28°C° 0 mm 5 mps 723 mmHg 64%
    16:00 +28°C° 0 mm 5 mps 723 mmHg 64%
    17:00 +27°C° 0 mm 5 mps 723 mmHg 67%
    18:00 +27°C° 0 mm 5 mps 724 mmHg 70%
    19:00 +26°C° 0 mm 5 mps 724 mmHg 73%
    20:00 +26°C° 0 mm 5 mps 724 mmHg 74%
    21:00 +26°C° 0 mm 6 mps 724 mmHg 75%
    22:00 +26°C° 0 mm 6 mps 725 mmHg 77%
    23:00 +26°C° 0 mm 6 mps 724 mmHg 77%
    Show more